Voltar ao catálogo

OPS 4682 DEB

AtivoPO
NORAD 1316·DEBRIS·🇺🇸 United States

Lançado Apr 3, 1965 de Vandenberg Space Force Base

Loading…

Próximas Passagens (próximas 24 horas)

TLE

AtualizadoSource: Space-Track

Época: Sep 14, 2026, 14:35 UTC

1 01316U 65027C   26257.60771169  .00000807  00000-0  19063-2 0  9996
2 01316  90.2673  29.7703 0032390 290.8318  68.9349 13.22635061930826

Acompanhe OPS 4682 DEB em tempo real com AllMySat

Download on the App Store